Hugo Toumire

Cofidis, Frankrike, 22 år

Pro Cycling Manager

Informasjon

Hugo Toumire er en 22 år gammel profesjonell syklist fra Frankrike (født 5.oktober 2001), som sykler for Cofidis (UCI WorldTeam). Han er nummer 2365 på UCI rankingen.

2024 2023 2022 2021 2020 2019 2018

Cofidis (WorldTour) UCI Ranking: 2365 (8pts)
Alle Flatt Kupert Fjell Tempo
Dato Pos GC Ritt UCI
30.06 Okolo Slovenska | 2.1 2024-06-30 Vis mer
30.06 68 Okolo Slovenska | Sammenlagt 2024-06-30
03.03 96 GP Jean-Pierre Monseré | 1.1 2024-03-03Vis mer
02.03 89 GP Criquielion | 1.1 2024-03-02Vis mer
14.02 Tour of Oman | 2.Pro 2024-02-14 Vis mer
14.02 53 Tour of Oman | Sammenlagt 2024-02-14
09.02 72 Muscat Classic | 1.1 2024-02-09Vis mer
28.01 90 GP la Marseillaise | 1.1 2024-01-28Vis mer
25.01 61 Trofeo Ses Salines - Felanitx | 1.1 2024-01-25Vis mer
24.01 134 Trofeo Calvia | 1.1 2024-01-24Vis mer
25.02 UAE Tour | 2.UWT 2024-02-25 Vis mer
25.02 39 UAE Tour | Sammenlagt 2024-02-255
24.03 74 La Roue Tourangelle | 1.1 2024-03-24Vis mer
23.06 85 France RR | CN 2024-06-23Vis mer
09.06 Critérium du Dauphiné | 2.UWT 2024-06-09 Vis mer
09.06 DNF Critérium du Dauphiné | Sammenlagt 2024-06-09
29.05 34 Mercan'Tour Classic Alpes-Maritimes | 1.1 2024-05-29Vis mer
28.04 Tour de Romandie | 2.UWT 2024-04-28 Vis mer
28.04 102 Tour de Romandie | Sammenlagt 2024-04-28
14.04 89 Tour du Doubs | 1.1 2024-04-14Vis mer
12.04 53 Classic Grand Besançon Doubs | 1.1 2024-04-12Vis mer
29.03 56 Route Adélie de Vitré | 1.1 2024-03-29Vis mer
27.03 66 Paris - Camembert | 1.1 2024-03-27Vis mer
15.07 Tour de l'Ain | 2.1 2024-07-15 Vis mer
15.07 50 Tour de l'Ain | Sammenlagt 2024-07-15
14.02 25 Tour of Oman | Ungdom 2024-02-14
25.02 12 UAE Tour | Ungdom 2024-02-25
28.04 25 Tour de Romandie | Ungdom 2024-04-28
15.07 27 Tour de l'Ain | Fjell 2024-07-15
15.07 5550 Tour de l'Ain | 3.etappe 2024-07-15
14.07 4951 Tour de l'Ain | 2.etappe 2024-07-14
13.07 7373 Tour de l'Ain | 1.etappe 2024-07-13
30.06 4468 Okolo Slovenska | 5.etappe 2024-06-30
29.06 93111 Okolo Slovenska | 4.etappe 2024-06-29
28.06 82103 Okolo Slovenska | 3.etappe 2024-06-28
27.06 76110 Okolo Slovenska | 2.etappe 2024-06-27
26.06 5133 Okolo Slovenska | 1.etappe | TTT 2024-06-26
08.06 DNS Critérium du Dauphiné | 7.etappe 2024-06-08
07.06 126124 Critérium du Dauphiné | 6.etappe 2024-06-07
05.06 116120 Critérium du Dauphiné | 4.etappe 2024-06-05
04.06 107118 Critérium du Dauphiné | 3.etappe 2024-06-04
03.06 109131 Critérium du Dauphiné | 2.etappe 2024-06-03
02.06 7778 Critérium du Dauphiné | 1.etappe 2024-06-02
28.04 84102 Tour de Romandie | 5.etappe 2024-04-28
27.04 111111 Tour de Romandie | 4.etappe 2024-04-27
26.04 136103 Tour de Romandie | 3.etappe 2024-04-26
25.04 76103 Tour de Romandie | 2.etappe 2024-04-25
24.04 114131 Tour de Romandie | 1.etappe 2024-04-24
23.04 150150 Tour de Romandie | Prolog 2024-04-23
25.02 4939 UAE Tour | 7.etappe 2024-02-25
24.02 6748 UAE Tour | 6.etappe 2024-02-24
23.02 6148 UAE Tour | 5.etappe 2024-02-23
22.02 4449 UAE Tour | 4.etappe 2024-02-22
21.02 4949 UAE Tour | 3.etappe 2024-02-21
20.02 115115 UAE Tour | 2.etappe 2024-02-20
19.02 7273 UAE Tour | 1.etappe 2024-02-19
14.02 5053 Tour of Oman | 5.etappe 2024-02-14
13.02 7556 Tour of Oman | 4.etappe 2024-02-13
12.02 5750 Tour of Oman | 3.etappe 2024-02-12
11.02 5452 Tour of Oman | 2.etappe 2024-02-11
10.02 7374 Tour of Oman | 1.etappe 2024-02-10